Lid_Strength_Index
15 15 15 15 15 15 15 15 15 14 14 13 13 13 13 12 12 11 11 11 11 11 11 10 10 9 9 9 6 2 2 3
17 16 17 17 17 16 16 16 16 15 15 14 14 13 13 13 13 12 11 11 11 11 11 11 11 10 10 9 7 2 2 4
18 18 18 18 18 18 18 17 16 16 16 15 14 14 14 14 13 12 11 10 11 10 11 11 10 10 9 10 7 3 3 4
17 18 19 18 18 18 18 17 17 18 17 16 16 15 15 14 13 12 12 11 11 10 10 10 10 10 10 7 5 4 3 4
18 18 18 18 18 19 18 17 18 18 17 17 16 15 15 14 13 13 12 12 11 10 9 9 10 9 10 8 6 4 5 5
19 19 19 19 19 18 18 18 18 18 17 17 16 15 15 15 14 13 12 11 10 10 9 9 9 9 10 9 7 6 6 6
19 19 19 19 19 19 19 18 18 18 18 15 13 12 13 14 14 13 12 11 10 9 9 8 7 8 8 8 7 8 7 7
19 19 19 19 19 20 19 18 18 19 16 14 12 9 9 12 13 13 12 11 10 9 8 7 8 7 7 7 7 8 7 7
19 19 19 19 19 19 19 18 19 19 16 14 12 9 10 11 12 12 11 10 9 8 8 6 7 6 6 7 6 7 7 8
19 19 19 19 20 20 19 19 19 19 17 14 12 10 8 9 9 9 9 8 8 8 7 6 6 5 5 7 7 7 8 8
18 18 18 20 20 20 20 20 21 19 17 15 12 11 10 8 6 6 6 6 6 6 5 5 4 5 5 6 8 9 9 9
19 19 19 20 20 21 20 21 21 18 17 16 14 12 11 10 9 7 7 7 7 7 7 5 5 5 5 5 8 9 10 10
19 19 19 19 20 21 22 21 20 18 18 17 16 14 11 11 10 10 9 9 9 8 8 8 7 6 5 6 7 8 11 11
19 19 20 20 20 22 22 22 21 19 19 18 17 16 14 12 11 11 10 10 10 10 10 10 10 10 8 8 9 9 10 11
18 19 20 20 20 22 22 22 21 20 19 19 18 17 17 15 13 12 13 13 12 11 12 13 12 12 11 10 10 11 11 11
19 19 20 21 21 22 22 22 20 20 20 20 19 18 18 16 15 15 13 12 13 12 12 13 14 13 12 12 13 12 12 12
19 20 21 22 22 23 23 23 22 20 21 21 21 20 19 19 17 13 13 12 11 11 12 12 12 11 12 12 11 12 11 13
20 23 25 24 24 25 25 23 23 22 22 21 21 22 22 21 20 20 17 14 13 12 12 11 11 11 12 12 12 12 12 14
26 27 29 28 27 28 26 24 23 23 22 22 22 23 22 22 23 22 21 20 20 16 15 13 12 13 12 12 13 15 15 15
29 29 29 28 27 31 29 26 25 23 22 23 22 22 22 22 22 22 22 21 21 20 19 17 14 14 14 14 16 16 16 16